Location: Castelnau
(43.6639°N, 0.8431°W)
Time: 16:51:38
(UTC+00:00)

Meteor 2-10 Rocket - Pass Details

Date: 13 January 2026
Orbit: 733 x 881 km, 81.2° (Epoch: 10 February)

Event Time Altitude Azimuth Distance (km) Brightness Sun altitude
Rises 06:13:46 0° 198° (SSW) 3,154 6.7 -14.3°
Reaches altitude 10° 06:16:04 10° 201° (SSW) 2,245 5.9 -13.9°
Maximum altitude 06:21:03 63° 283° (WNW) 843 3.4 -13.1°
Drops below altitude 10° 06:26:14 10° 4° (N) 2,330 5.9 -12.2°
Sets 06:28:41 0° 8° (N) 3,284 6.7 -11.8°
